TimeEST,TemperatureF,Dew PointF,Humidity,Sea Level PressureIn,VisibilityMPH,Wind Direction,Wind SpeedMPH,Gust SpeedMPH,PrecipitationIn,Events,Conditions,WindDirDegrees,DateUTC
12:01 AM,14.0,6.8,73,30.06,2.0,West,29.9,35.7,0.00,Snow,Light Snow,280,2013-01-22 05:01:00
12:08 AM,12.2,8.6,85,30.07,0.8,West,29.9,35.7,0.00,Snow,Light Snow,270,2013-01-22 05:08:00
12:18 AM,10.4,8.6,92,30.07,0.2,SW,19.6,36.8,0.00,Fog-Snow,Heavy Snow,230,2013-01-22 05:18:00
12:27 AM,10.4,6.8,85,30.07,0.5,WSW,20.7,26.5,0.00,Fog-Snow,Snow,250,2013-01-22 05:27:00
12:53 AM,12.0,10.0,92,30.10,0.2,West,24.2,42.6,0.01,Fog-Snow,Heavy Snow,270,2013-01-22 05:53:00
1:46 AM,10.4,8.6,92,30.09,0.2,WSW,23.0,31.1,0.01,Fog-Snow,Heavy Snow,240,2013-01-22 06:46:00
1:53 AM,9.0,8.1,96,30.12,0.2,WSW,21.9,33.4,0.01,Fog-Snow,Heavy Snow,240,2013-01-22 06:53:00
2:22 AM,8.6,6.8,92,30.09,0.2,WSW,23.0,28.8,0.00,Fog-Snow,Snow,240,2013-01-22 07:22:00
2:53 AM,9.0,5.0,84,30.13,0.2,WSW,23.0,32.2,0.00,Fog-Snow,Snow,240,2013-01-22 07:53:00
3:16 AM,8.6,6.8,92,30.11,0.2,WSW,25.3,31.1,0.00,Fog-Snow,Heavy Snow,240,2013-01-22 08:16:00
3:53 AM,10.0,8.1,92,30.15,0.2,WSW,21.9,31.1,0.00,Fog-Snow,Snow,250,2013-01-22 08:53:00
4:08 AM,10.4,6.8,85,30.11,0.5,WNW,25.3,31.1,0.00,Snow,Snow,290,2013-01-22 09:08:00
4:15 AM,10.4,6.8,85,30.12,0.5,West,25.3,34.5,0.00,Snow,Snow,280,2013-01-22 09:15:00
4:23 AM,10.4,6.8,85,30.11,0.5,West,23.0,33.4,0.00,Snow,Snow,280,2013-01-22 09:23:00
4:53 AM,10.9,5.0,77,30.15,0.5,WNW,25.3,34.5,0.00,Snow,Snow,290,2013-01-22 09:53:00
5:12 AM,10.4,5.0,79,30.12,0.5,WNW,29.9,36.8,0.00,Snow,Snow,290,2013-01-22 10:12:00
5:53 AM,10.0,5.0,80,30.17,0.5,WNW,26.5,39.1,0.00,Snow,Snow,290,2013-01-22 10:53:00
6:53 AM,10.0,5.0,80,30.20,0.8,WNW,29.9,36.8,0.00,Snow,Light Snow,290,2013-01-22 11:53:00
7:39 AM,8.6,3.2,79,30.18,1.0,WNW,25.3,36.8,0.00,Snow,Light Snow,290,2013-01-22 12:39:00
7:53 AM,9.0,1.9,73,30.23,1.2,West,27.6,38.0,0.00,Snow,Light Snow,280,2013-01-22 12:53:00
8:03 AM,8.6,3.2,79,30.19,1.8,WNW,26.5,35.7,0.00,Snow,Light Snow,290,2013-01-22 13:03:00
8:15 AM,8.6,1.4,73,30.20,0.8,West,28.8,35.7,0.00,Snow,Light Snow,280,2013-01-22 13:15:00
8:53 AM,8.1,1.9,76,30.25,1.0,WNW,26.5,35.7,0.00,Snow,Light Snow,300,2013-01-22 13:53:00
9:43 AM,8.6,1.4,73,30.24,2.0,West,24.2,38.0,0.00,Snow,Light Snow,280,2013-01-22 14:43:00
9:53 AM,8.1,1.0,73,30.28,2.5,WNW,24.2,38.0,0.00,Snow,Light Snow,290,2013-01-22 14:53:00
10:08 AM,8.6,1.4,73,30.25,1.2,WNW,26.5,33.4,0.00,Snow,Light Snow,290,2013-01-22 15:08:00
10:47 AM,8.6,-0.4,67,30.26,3.0,WNW,24.2,33.4,0.00,,Overcast,290,2013-01-22 15:47:00
10:53 AM,8.1,1.0,73,30.30,9.0,West,23.0,33.4,0.00,,Overcast,280,2013-01-22 15:53:00
11:53 AM,10.9,3.0,70,30.29,6.0,WNW,25.3,32.2,0.00,Snow,Light Snow,290,2013-01-22 16:53:00
12:01 PM,10.4,-0.4,62,30.25,6.0,WNW,27.6,49.5,0.00,,Haze,290,2013-01-22 17:01:00
12:53 PM,9.0,1.9,73,30.28,6.0,WNW,27.6,32.2,0.00,Snow,Light Snow,290,2013-01-22 17:53:00
12:59 PM,8.6,1.4,73,30.24,0.8,West,24.2,32.2,0.00,Snow,Light Snow,280,2013-01-22 17:59:00
1:26 PM,8.6,3.2,79,30.23,1.0,WSW,18.4,33.4,0.00,Snow,Light Snow,240,2013-01-22 18:26:00
1:34 PM,8.6,3.2,79,30.23,0.5,WSW,20.7,-,0.00,Snow,Snow,250,2013-01-22 18:34:00
1:41 PM,6.8,3.2,85,30.23,0.2,WSW,21.9,-,0.00,Fog-Snow,Snow,240,2013-01-22 18:41:00
1:53 PM,8.1,1.9,76,30.27,0.5,WSW,19.6,-,0.00,Snow,Snow,240,2013-01-22 18:53:00
1:59 PM,8.6,1.4,73,30.23,4.0,WSW,19.6,26.5,0.00,Snow,Light Snow,240,2013-01-22 18:59:00
2:08 PM,8.6,-0.4,67,30.23,4.0,WSW,19.6,-,0.00,,Haze,240,2013-01-22 19:08:00
2:53 PM,9.0,1.9,73,30.28,4.0,WSW,19.6,-,0.00,Snow,Light Snow,250,2013-01-22 19:53:00
3:00 PM,8.6,1.4,73,30.24,1.5,West,21.9,27.6,0.00,Snow,Light Snow,260,2013-01-22 20:00:00
3:07 PM,10.4,1.4,67,30.24,3.0,WSW,18.4,27.6,0.00,Snow,Light Snow,250,2013-01-22 20:07:00
3:11 PM,10.4,3.2,73,30.24,1.8,WSW,19.6,-,0.00,Snow,Light Snow,250,2013-01-22 20:11:00
3:26 PM,8.6,3.2,79,30.25,3.0,WSW,20.7,25.3,0.00,Snow,Light Snow,250,2013-01-22 20:26:00
3:36 PM,10.4,3.2,73,30.24,1.8,WSW,26.5,32.2,0.00,Snow,Light Snow,250,2013-01-22 20:36:00
3:47 PM,10.4,1.4,67,30.25,2.5,West,23.0,29.9,0.00,,Haze,260,2013-01-22 20:47:00
3:53 PM,10.0,1.0,67,30.29,5.0,West,26.5,33.4,0.00,,Haze,260,2013-01-22 20:53:00
4:53 PM,10.9,3.0,70,30.28,6.0,West,21.9,31.1,0.00,Snow,Light Snow,260,2013-01-22 21:53:00
5:53 PM,10.0,3.9,76,30.29,5.0,SW,17.3,-,0.00,Snow,Light Snow,220,2013-01-22 22:53:00
6:04 PM,10.4,3.2,73,30.25,7.0,WSW,20.7,-,0.00,Snow,Light Snow,240,2013-01-22 23:04:00
6:15 PM,10.4,3.2,73,30.26,3.0,SW,18.4,26.5,0.00,Snow,Light Snow,230,2013-01-22 23:15:00
6:53 PM,10.9,3.0,70,30.30,7.0,WSW,19.6,-,0.00,Snow,Light Snow,240,2013-01-22 23:53:00
7:53 PM,10.0,3.0,73,30.30,2.5,SW,25.3,31.1,0.00,Snow,Light Snow,230,2013-01-23 00:53:00
8:24 PM,10.4,3.2,73,30.26,5.0,SW,19.6,27.6,0.00,Snow,Light Snow,230,2013-01-23 01:24:00
8:34 PM,10.4,3.2,73,30.26,6.0,WSW,18.4,28.8,0.00,Snow,Light Snow,240,2013-01-23 01:34:00
8:53 PM,10.0,3.9,76,30.30,3.0,SW,19.6,-,0.00,Snow,Light Snow,230,2013-01-23 01:53:00
9:07 PM,10.4,3.2,73,30.26,2.0,SW,19.6,25.3,0.00,Snow,Light Snow,230,2013-01-23 02:07:00
9:18 PM,10.4,3.2,73,30.25,10.0,SW,15.0,-,0.00,Snow,Light Snow,230,2013-01-23 02:18:00
9:26 PM,10.4,3.2,73,30.25,10.0,WSW,16.1,24.2,0.00,,Overcast,250,2013-01-23 02:26:00
9:36 PM,12.2,1.4,62,30.25,10.0,West,20.7,29.9,0.00,,Overcast,270,2013-01-23 02:36:00
9:53 PM,12.0,1.9,64,30.29,10.0,West,15.0,26.5,0.00,,Overcast,260,2013-01-23 02:53:00
10:53 PM,12.0,1.0,61,30.29,10.0,West,25.3,-,N/A,,Overcast,280,2013-01-23 03:53:00
11:26 PM,12.2,5.0,73,30.25,2.5,West,20.7,-,0.00,Snow,Light Snow,280,2013-01-23 04:26:00
11:42 PM,12.2,3.2,67,30.25,5.0,WNW,19.6,28.8,0.00,Snow,Light Snow,290,2013-01-23 04:42:00
11:53 PM,12.0,3.9,70,30.29,4.0,West,23.0,32.2,0.00,Snow,Light Snow,280,2013-01-23 04:53:00